Terug naar catalogus

FENGYUN 1C DEB

ActiefSSO
NORAD 30067·DEBRIS·🇨🇳 China

Gelanceerd May 10, 1999 vanaf Taiyuan Satellite Launch Center

Loading…

Volgende Passages (komende 24 uur)

TLE

VersSource: Space-Track

Epoch: Sep 14, 2026, 16:04 UTC

1 30067U 99025PU  26257.66977448  .00000631  00000-0  17423-3 0  9994
2 30067  98.7346 156.7516 0148707 271.8909 106.9383 14.44347106 31782

Volg FENGYUN 1C DEB in realtime met AllMySat

Download on the App Store